TimeEST,TemperatureF,Dew PointF,Humidity,Sea Level PressureIn,VisibilityMPH,Wind Direction,Wind SpeedMPH,Gust SpeedMPH,PrecipitationIn,Events,Conditions,WindDirDegrees,DateUTC
12:15 AM,26.8,21.0,79,30.19,10.0,Calm,Calm,-,N/A,,Clear,0,2014-02-01 05:15:00
12:35 AM,25.3,20.3,81,30.19,10.0,Calm,Calm,-,N/A,,Clear,0,2014-02-01 05:35:00
12:55 AM,25.0,20.3,82,30.18,10.0,Calm,Calm,-,N/A,,Clear,0,2014-02-01 05:55:00
1:15 AM,24.6,20.3,84,30.18,10.0,Calm,Calm,-,N/A,,Clear,0,2014-02-01 06:15:00
1:35 AM,24.1,20.8,87,30.19,10.0,Calm,Calm,-,N/A,,Clear,0,2014-02-01 06:35:00
1:55 AM,23.9,20.1,85,30.19,10.0,Calm,Calm,-,N/A,,Clear,0,2014-02-01 06:55:00
2:15 AM,24.8,20.7,84,30.19,10.0,Calm,Calm,-,N/A,,Clear,0,2014-02-01 07:15:00
2:35 AM,24.6,21.0,86,30.19,10.0,Calm,Calm,-,N/A,,Clear,0,2014-02-01 07:35:00
2:55 AM,24.6,20.3,84,30.19,10.0,Calm,Calm,-,N/A,,Clear,0,2014-02-01 07:55:00
3:15 AM,23.7,19.9,85,30.19,10.0,Calm,Calm,-,N/A,,Clear,0,2014-02-01 08:15:00
3:35 AM,23.0,19.9,88,30.19,10.0,Calm,Calm,-,N/A,,Clear,0,2014-02-01 08:35:00
3:55 AM,21.0,18.7,91,30.19,10.0,Calm,Calm,-,N/A,,Clear,0,2014-02-01 08:55:00
4:15 AM,22.3,20.1,91,30.19,10.0,Calm,Calm,-,N/A,,Clear,0,2014-02-01 09:15:00
4:35 AM,21.2,19.4,93,30.19,10.0,Calm,Calm,-,N/A,,Clear,0,2014-02-01 09:35:00
4:55 AM,22.1,20.5,93,30.20,10.0,Calm,Calm,-,N/A,,Clear,0,2014-02-01 09:55:00
5:15 AM,21.2,19.4,93,30.20,10.0,Calm,Calm,-,N/A,,Clear,0,2014-02-01 10:15:00
5:35 AM,22.5,20.5,92,30.21,10.0,Calm,Calm,-,N/A,,Clear,0,2014-02-01 10:35:00
5:55 AM,20.7,18.5,91,30.21,10.0,Calm,Calm,-,N/A,,Clear,0,2014-02-01 10:55:00
6:15 AM,20.5,18.9,93,30.22,10.0,Calm,Calm,-,N/A,,Clear,0,2014-02-01 11:15:00
6:35 AM,19.9,18.3,93,30.23,10.0,Calm,Calm,-,N/A,,Clear,0,2014-02-01 11:35:00
6:55 AM,20.3,19.0,95,30.23,10.0,Calm,Calm,-,N/A,,Clear,0,2014-02-01 11:55:00
7:15 AM,19.8,18.3,94,30.24,10.0,Calm,Calm,-,N/A,,Clear,0,2014-02-01 12:15:00
7:35 AM,18.9,17.6,95,30.24,10.0,Calm,Calm,-,N/A,,Clear,0,2014-02-01 12:35:00
7:55 AM,21.4,20.5,96,30.24,10.0,Calm,Calm,-,N/A,,Clear,0,2014-02-01 12:55:00
8:15 AM,23.0,21.2,93,30.24,10.0,Calm,Calm,-,N/A,,Clear,0,2014-02-01 13:15:00
8:35 AM,26.6,23.0,86,30.25,10.0,Calm,Calm,-,N/A,,Clear,0,2014-02-01 13:35:00
8:55 AM,29.3,23.9,80,30.25,10.0,Calm,Calm,-,N/A,,Clear,0,2014-02-01 13:55:00
9:15 AM,32.0,23.9,72,30.26,10.0,Calm,Calm,-,N/A,,Clear,0,2014-02-01 14:15:00
9:35 AM,35.2,23.7,63,30.26,10.0,Calm,Calm,-,N/A,,Clear,0,2014-02-01 14:35:00
9:55 AM,37.0,21.7,54,30.25,10.0,ENE,3.5,-,N/A,,Clear,70,2014-02-01 14:55:00
10:15 AM,39.4,21.9,50,30.26,10.0,NE,3.5,-,N/A,,Clear,40,2014-02-01 15:15:00
10:35 AM,41.0,21.4,46,30.24,10.0,ENE,4.6,-,N/A,,Clear,60,2014-02-01 15:35:00
10:55 AM,43.0,21.6,43,30.24,10.0,Calm,Calm,-,N/A,,Clear,0,2014-02-01 15:55:00
11:15 AM,44.6,21.2,39,30.24,10.0,Calm,Calm,-,N/A,,Clear,0,2014-02-01 16:15:00
11:35 AM,46.6,22.3,38,30.24,10.0,Calm,Calm,-,N/A,,Clear,0,2014-02-01 16:35:00
11:55 AM,47.8,21.0,35,30.22,10.0,Calm,Calm,-,N/A,,Clear,0,2014-02-01 16:55:00
12:15 PM,49.8,21.7,33,30.20,10.0,Calm,Calm,-,N/A,,Clear,0,2014-02-01 17:15:00
12:35 PM,50.5,21.4,32,30.18,10.0,Calm,Calm,-,N/A,,Clear,0,2014-02-01 17:35:00
12:55 PM,52.0,21.2,30,30.17,10.0,Calm,Calm,-,N/A,,Mostly Cloudy,0,2014-02-01 17:55:00
1:15 PM,52.0,22.3,31,30.16,10.0,WNW,3.5,-,N/A,,Mostly Cloudy,290,2014-02-01 18:15:00
1:35 PM,54.7,23.7,30,30.14,10.0,Calm,Calm,-,N/A,,Overcast,0,2014-02-01 18:35:00
1:55 PM,56.5,23.7,28,30.14,10.0,SSE,3.5,-,N/A,,Overcast,150,2014-02-01 18:55:00
2:15 PM,57.7,23.5,27,30.13,10.0,South,4.6,-,N/A,,Overcast,180,2014-02-01 19:15:00
2:35 PM,58.6,21.7,24,30.11,10.0,SE,3.5,-,N/A,,Overcast,140,2014-02-01 19:35:00
2:55 PM,58.1,20.7,23,30.11,10.0,South,4.6,-,N/A,,Overcast,170,2014-02-01 19:55:00
3:15 PM,58.6,21.9,24,30.11,10.0,SSE,3.5,-,N/A,,Overcast,150,2014-02-01 20:15:00
3:35 PM,58.3,21.2,24,30.11,10.0,South,4.6,-,N/A,,Overcast,180,2014-02-01 20:35:00
3:55 PM,58.6,21.9,24,30.11,10.0,Calm,Calm,-,N/A,,Overcast,0,2014-02-01 20:55:00
4:15 PM,59.0,21.4,23,30.11,10.0,SSE,4.6,-,N/A,,Overcast,160,2014-02-01 21:15:00
4:35 PM,58.6,22.8,25,30.12,10.0,South,4.6,-,N/A,,Overcast,190,2014-02-01 21:35:00
4:55 PM,57.9,23.7,27,30.12,10.0,South,3.5,-,N/A,,Overcast,180,2014-02-01 21:55:00
5:15 PM,57.6,23.7,27,30.12,10.0,South,3.5,-,N/A,,Overcast,170,2014-02-01 22:15:00
5:35 PM,57.0,22.6,26,30.12,10.0,South,4.6,-,N/A,,Overcast,190,2014-02-01 22:35:00
5:55 PM,56.1,22.1,27,30.11,10.0,South,6.9,-,N/A,,Overcast,170,2014-02-01 22:55:00
6:15 PM,55.8,21.9,27,30.11,10.0,SSW,3.5,-,N/A,,Overcast,200,2014-02-01 23:15:00
6:35 PM,55.4,23.5,29,30.11,10.0,SSW,3.5,-,N/A,,Overcast,200,2014-02-01 23:35:00
6:55 PM,54.9,23.2,29,30.10,10.0,Calm,Calm,-,N/A,,Overcast,0,2014-02-01 23:55:00
7:15 PM,53.6,23.5,31,30.10,10.0,Calm,Calm,-,N/A,,Overcast,0,2014-02-02 00:15:00
7:35 PM,54.0,23.4,30,30.10,10.0,Calm,Calm,-,N/A,,Overcast,0,2014-02-02 00:35:00
7:55 PM,53.8,22.8,30,30.10,10.0,Calm,Calm,-,N/A,,Overcast,0,2014-02-02 00:55:00
8:15 PM,53.6,22.3,30,30.10,10.0,Calm,Calm,-,N/A,,Overcast,0,2014-02-02 01:15:00
8:35 PM,52.9,23.4,32,30.10,10.0,SSW,3.5,-,N/A,,Overcast,210,2014-02-02 01:35:00
8:55 PM,52.3,23.9,33,30.10,10.0,SSW,3.5,-,N/A,,Overcast,210,2014-02-02 01:55:00
9:15 PM,52.2,25.3,35,30.10,10.0,SW,3.5,-,N/A,,Overcast,220,2014-02-02 02:15:00
9:35 PM,51.8,25.9,37,30.10,10.0,Calm,Calm,-,N/A,,Overcast,0,2014-02-02 02:35:00
9:55 PM,52.0,26.4,37,30.10,10.0,SSW,4.6,-,N/A,,Overcast,200,2014-02-02 02:55:00
10:15 PM,51.4,27.7,40,30.09,10.0,South,5.8,-,N/A,,Overcast,190,2014-02-02 03:15:00
10:35 PM,50.5,28.4,42,30.08,10.0,SSW,3.5,-,N/A,,Mostly Cloudy,200,2014-02-02 03:35:00
10:55 PM,49.6,28.9,45,30.08,10.0,SW,3.5,-,N/A,,Mostly Cloudy,220,2014-02-02 03:55:00
11:15 PM,50.2,29.5,45,30.08,10.0,SSW,4.6,-,N/A,,Overcast,210,2014-02-02 04:15:00
11:35 PM,50.0,30.0,46,30.07,10.0,SSW,4.6,-,N/A,,Overcast,210,2014-02-02 04:35:00
11:55 PM,49.8,29.3,45,30.07,10.0,SSW,4.6,-,N/A,,Mostly Cloudy,210,2014-02-02 04:55:00